Location: Poughquag
(41.6090°N, 73.6820°W)
Time: 20:38:42
(UTC-04:00)

A-11 Canister half - Pass Details

Date: 02 June 2020
Orbit: 1527 x 1682 km, 47.3° (Epoch: 04 July)

Event Time Altitude Azimuth Distance (km) Brightness Sun altitude
Rises 16:05:45 0° 287° (WNW) 4,778 12.2 45.5°
Reaches altitude 10° 16:10:52 10° 265° (W) 3,822 12.1 44.5°
Maximum altitude 16:15:15 14° 237° (WSW) 3,534 11.9 43.7°
Drops below altitude 10° 16:19:41 10° 210° (SSW) 3,870 11.6 42.9°
Sets 16:25:00 0° 187° (S) 4,881 11.8 41.9°
